TAP65 LPPT-FACT

Flight info

Callsign TAP65
Flight time N/A
Altitude 35000
Route DUZOP DCT AMSEL UR722 SAK UW900 OZT UJ744 BAGBO UM629 BAKAB/N0476F370 UM629 KELEX UR984 LAG UR603 STM UA400 EBSEN/N0471F390 UA400 VNA UN187 VEDRY/N0438F240 R987 ERDAS ERDAS1B
Aircraft A343/H-SDE2E3FGHIJ4J5M1RWXY/LB1D1

Departure

Time 2026-05-05 22:39
Airport Lisbon Humberto Delgado Airport (LPPT)

Arrival

Time N/A
Airport Cape Town International Airport (FACT)
Time Latitude Longitude Altitude Speed Heading
2026-05-05 22:15 38.77671 -9.13213 340 ft 0 kts 121°
2026-05-05 22:27 38.77680 -9.13232 335 ft 4 kts 121°
2026-05-05 22:27 38.77694 -9.13262 335 ft 4 kts 121°
2026-05-05 22:27 38.77708 -9.13291 335 ft 4 kts 121°
2026-05-05 22:27 38.77719 -9.13315 353 ft 4 kts 124°
2026-05-05 22:28 38.77737 -9.13338 355 ft 4 kts 158°
2026-05-05 22:28 38.77763 -9.13346 354 ft 4 kts 168°
2026-05-05 22:28 38.77762 -9.13346 354 ft 4 kts 167°
2026-05-05 22:28 38.77735 -9.13339 355 ft 4 kts 168°
2026-05-05 22:29 38.77709 -9.13332 352 ft 4 kts 168°
2026-05-05 22:29 38.77682 -9.13325 350 ft 4 kts 168°
2026-05-05 22:29 38.77661 -9.13319 336 ft 3 kts 169°
2026-05-05 22:29 38.77635 -9.13320 336 ft 4 kts 185°
2026-05-05 22:30 38.77608 -9.13322 338 ft 4 kts 181°
2026-05-05 22:30 38.77581 -9.13319 338 ft 4 kts 172°
2026-05-05 22:30 38.77565 -9.13315 338 ft 0 kts 168°
2026-05-05 22:35 38.77551 -9.13311 338 ft 14 kts 168°
2026-05-05 22:35 38.77424 -9.13278 339 ft 13 kts 168°
2026-05-05 22:35 38.77373 -9.13271 348 ft 5 kts 186°
2026-05-05 22:35 38.77349 -9.13278 348 ft 6 kts 188°
2026-05-05 22:36 38.77332 -9.13280 352 ft 0 kts 188°
2026-05-05 22:37 38.76672 -9.14373 335 ft 0 kts 22°
2026-05-05 22:38 38.76675 -9.14372 334 ft 5 kts 22°
2026-05-05 22:38 38.76814 -9.14299 355 ft 39 kts 22°
2026-05-05 22:38 38.77165 -9.14116 365 ft 69 kts 22°
2026-05-05 22:38 38.77697 -9.13838 372 ft 96 kts 23°
2026-05-05 22:39 38.78383 -9.13466 373 ft 114 kts 21°
2026-05-05 22:39 38.79174 -9.13040 362 ft 133 kts 22°
2026-05-05 22:39 38.80092 -9.12546 413 ft 155 kts 20°
2026-05-05 22:39 38.81034 -9.11934 1022 ft 153 kts 25°
2026-05-05 22:40 38.81919 -9.11203 1598 ft 158 kts 29°
2026-05-05 22:40 38.82881 -9.10382 1911 ft 175 kts 28°
2026-05-05 22:40 38.83966 -9.09532 2130 ft 191 kts 26°
2026-05-05 22:40 38.85206 -9.08627 2264 ft 218 kts 25°
2026-05-05 22:41 38.86584 -9.07649 2674 ft 233 kts 27°
2026-05-05 22:41 38.87873 -9.06321 3285 ft 246 kts 48°
2026-05-05 22:41 38.88579 -9.04243 3492 ft 268 kts 81°
2026-05-05 22:41 38.88210 -9.01880 4048 ft 279 kts 115°
2026-05-05 22:42 38.87082 -8.99893 4891 ft 281 kts 129°
2026-05-05 22:42 38.85659 -8.98170 5628 ft 283 kts 140°
2026-05-05 22:42 38.84026 -8.96735 6301 ft 287 kts 149°
2026-05-05 22:42 38.82209 -8.95644 6958 ft 290 kts 160°
2026-05-05 22:43 38.80266 -8.94954 7572 ft 292 kts 170°
2026-05-05 22:43 38.78240 -8.94700 8244 ft 293 kts 181°
2026-05-05 22:43 38.76214 -8.94900 8911 ft 292 kts 192°
2026-05-05 22:43 38.74251 -8.95543 9568 ft 292 kts 202°
2026-05-05 22:44 38.72402 -8.96617 10165 ft 292 kts 212°
2026-05-05 22:44 38.70723 -8.98080 10476 ft 302 kts 222°
2026-05-05 22:44 38.69205 -9.00002 10698 ft 314 kts 232°
2026-05-05 22:44 38.67813 -9.02230 10919 ft 327 kts 233°
2026-05-05 22:45 38.66241 -9.04422 11155 ft 343 kts 224°
2026-05-05 22:45 38.64277 -9.06274 11378 ft 359 kts 212°
2026-05-05 22:45 38.61988 -9.07687 11634 ft 372 kts 205°
2026-05-05 22:45 38.59576 -9.08972 12057 ft 378 kts 204°
2026-05-05 22:46 38.57131 -9.10257 12595 ft 381 kts 205°
2026-05-05 22:46 38.54670 -9.11555 13123 ft 384 kts 205°
2026-05-05 22:46 38.52228 -9.12848 13681 ft 387 kts 205°
2026-05-05 22:46 38.49737 -9.14170 14205 ft 389 kts 205°
2026-05-05 22:47 38.47209 -9.15458 14702 ft 393 kts 201°
2026-05-05 22:47 38.44530 -9.16262 15182 ft 400 kts 188°
2026-05-05 22:47 38.41738 -9.16216 15648 ft 407 kts 173°
2026-05-05 22:47 38.38996 -9.15241 16121 ft 413 kts 158°
2026-05-05 22:48 38.36476 -9.13434 16587 ft 418 kts 148°
2026-05-05 22:48 38.34065 -9.11323 17000 ft 423 kts 146°
2026-05-05 22:48 38.31674 -9.09190 17467 ft 426 kts 146°
2026-05-05 22:48 38.29244 -9.07034 17997 ft 427 kts 146°
2026-05-05 22:49 38.26793 -9.04872 18477 ft 429 kts 146°
2026-05-05 22:49 38.24331 -9.02708 18868 ft 432 kts 147°
2026-05-05 22:49 38.21844 -9.00528 19281 ft 435 kts 147°
2026-05-05 22:49 38.19350 -8.98343 19682 ft 437 kts 146°
2026-05-05 22:50 38.16836 -8.96143 20095 ft 440 kts 147°
2026-05-05 22:50 38.14304 -8.93936 20493 ft 442 kts 147°
2026-05-05 22:50 38.11795 -8.91753 20904 ft 444 kts 147°
2026-05-05 22:50 38.09236 -8.89533 21306 ft 446 kts 148°
2026-05-05 22:51 38.06574 -8.87508 21680 ft 447 kts 155°
2026-05-05 22:51 38.03763 -8.85822 22079 ft 448 kts 158°
2026-05-05 22:51 38.00915 -8.84213 22470 ft 450 kts 159°
2026-05-05 22:51 37.98050 -8.82605 22853 ft 452 kts 159°
2026-05-05 22:52 37.95167 -8.80981 23230 ft 454 kts 158°
2026-05-05 22:52 37.92273 -8.79340 23584 ft 456 kts 158°
2026-05-05 22:52 37.89374 -8.77700 23877 ft 458 kts 159°
2026-05-05 22:52 37.86491 -8.76077 24165 ft 460 kts 159°
2026-05-05 22:53 37.83560 -8.74425 24443 ft 462 kts 159°
2026-05-05 22:53 37.80612 -8.72766 24743 ft 465 kts 159°
2026-05-05 22:53 37.77653 -8.71104 25027 ft 467 kts 160°
2026-05-05 22:53 37.74675 -8.69432 25303 ft 469 kts 160°
2026-05-05 22:54 37.71691 -8.67760 25564 ft 471 kts 160°
2026-05-05 22:54 37.68688 -8.66072 25828 ft 473 kts 160°
2026-05-05 22:54 37.65687 -8.64395 26084 ft 474 kts 161°
2026-05-05 22:54 37.62653 -8.62851 26316 ft 475 kts 163°
2026-05-05 22:55 37.59553 -8.61417 26597 ft 475 kts 164°
2026-05-05 22:55 37.56440 -8.60035 26852 ft 477 kts 165°
2026-05-05 22:55 37.53299 -8.58656 27097 ft 478 kts 165°
2026-05-05 22:55 37.50153 -8.57270 27340 ft 480 kts 165°
2026-05-05 22:56 37.46993 -8.55860 27561 ft 482 kts 164°
2026-05-05 22:56 37.43835 -8.54422 27794 ft 484 kts 164°
2026-05-05 22:56 37.40675 -8.52967 28015 ft 486 kts 164°
2026-05-05 22:56 37.37522 -8.51512 28181 ft 489 kts 164°
2026-05-05 22:57 37.34327 -8.50052 28370 ft 490 kts 164°
2026-05-05 22:57 37.31112 -8.48591 28588 ft 492 kts 165°
2026-05-05 22:57 37.27896 -8.47131 28801 ft 493 kts 165°
2026-05-05 22:57 37.24668 -8.45664 29101 ft 493 kts 165°
2026-05-05 22:58 37.21449 -8.44198 29433 ft 492 kts 165°
2026-05-05 22:58 37.18234 -8.42733 29723 ft 492 kts 165°
2026-05-05 22:58 37.15028 -8.41273 29953 ft 492 kts 165°
2026-05-05 22:58 37.11841 -8.39821 30212 ft 491 kts 165°
2026-05-05 22:59 37.08640 -8.38363 30462 ft 491 kts 165°
2026-05-05 22:59 37.05428 -8.36902 30706 ft 490 kts 165°
2026-05-05 22:59 37.02228 -8.35449 30941 ft 489 kts 165°
2026-05-05 22:59 36.99038 -8.34002 31177 ft 488 kts 165°
2026-05-05 23:00 36.92685 -8.31116 31659 ft 485 kts 165°
2026-05-05 23:00 36.89514 -8.29677 31984 ft 482 kts 165°
2026-05-05 23:00 36.86356 -8.28251 32254 ft 480 kts 165°
2026-05-05 23:01 36.83254 -8.26853 32484 ft 479 kts 165°
2026-05-05 23:01 36.80085 -8.25427 32713 ft 478 kts 165°
2026-05-05 23:01 36.76991 -8.24036 32931 ft 477 kts 165°
2026-05-05 23:01 36.73880 -8.22637 33174 ft 476 kts 165°
2026-05-05 23:02 36.70764 -8.21235 33371 ft 475 kts 165°
2026-05-05 23:02 36.67664 -8.19841 33580 ft 474 kts 165°
2026-05-05 23:02 36.64561 -8.18448 33776 ft 473 kts 165°
2026-05-05 23:02 36.61464 -8.17059 33964 ft 472 kts 165°
2026-05-05 23:03 36.58374 -8.15674 34146 ft 472 kts 166°
2026-05-05 23:03 36.55331 -8.14312 34282 ft 471 kts 166°
2026-05-05 23:03 36.52241 -8.12930 34398 ft 472 kts 165°
2026-05-05 23:03 36.49156 -8.11551 34526 ft 472 kts 165°
2026-05-05 23:04 36.42972 -8.08792 34698 ft 473 kts 165°
2026-05-05 23:04 36.39873 -8.07410 34815 ft 473 kts 165°
2026-05-05 23:04 36.36781 -8.06032 34937 ft 473 kts 165°
2026-05-05 23:05 36.30614 -8.03281 35143 ft 473 kts 165°
2026-05-05 23:05 36.27514 -8.01898 35258 ft 473 kts 165°
2026-05-05 23:05 36.24418 -8.00519 35352 ft 473 kts 165°
2026-05-05 23:06 36.18221 -7.97757 35526 ft 473 kts 165°
2026-05-05 23:06 36.12019 -7.94997 35706 ft 473 kts 165°
2026-05-05 23:07 36.05820 -7.92242 35880 ft 474 kts 165°
2026-05-05 23:07 35.99603 -7.89501 36035 ft 473 kts 166°
2026-05-05 23:08 35.93269 -7.87932 36057 ft 465 kts 178°
2026-05-05 23:08 35.86836 -7.87230 36059 ft 463 kts 180°
2026-05-05 23:09 35.80423 -7.86682 36052 ft 461 kts 181°
2026-05-05 23:09 35.74015 -7.86136 36055 ft 461 kts 180°
2026-05-05 23:10 35.67600 -7.85569 36054 ft 462 kts 180°
2026-05-05 23:10 35.61220 -7.84999 36052 ft 461 kts 180°
2026-05-05 23:11 35.54808 -7.84417 36061 ft 462 kts 180°
2026-05-05 23:11 35.48408 -7.83839 36047 ft 462 kts 180°
2026-05-05 23:12 35.41983 -7.83284 36060 ft 463 kts 180°
2026-05-05 23:12 35.35595 -7.82743 36062 ft 463 kts 181°
2026-05-05 23:13 35.29167 -7.82217 36060 ft 463 kts 181°
2026-05-05 23:13 35.22743 -7.81679 36058 ft 463 kts 180°
2026-05-05 23:14 35.16306 -7.81116 36064 ft 463 kts 180°
2026-05-05 23:14 35.09888 -7.80561 36063 ft 463 kts 180°
2026-05-05 23:15 35.03460 -7.80027 36064 ft 462 kts 181°
2026-05-05 23:15 34.97038 -7.79517 36063 ft 462 kts 181°
2026-05-05 23:16 34.90667 -7.78997 36064 ft 462 kts 180°
2026-05-05 23:16 34.84242 -7.78443 36069 ft 462 kts 180°
2026-05-05 23:17 34.77820 -7.77882 36070 ft 462 kts 180°
2026-05-05 23:17 34.71392 -7.77340 36072 ft 462 kts 181°
2026-05-05 23:18 34.64957 -7.76886 36068 ft 463 kts 181°
2026-05-05 23:18 34.58546 -7.76463 36069 ft 463 kts 181°
2026-05-05 23:19 34.52106 -7.76042 36077 ft 463 kts 181°
2026-05-05 23:19 34.45704 -7.75596 36068 ft 463 kts 181°
2026-05-05 23:20 34.39266 -7.75136 36070 ft 463 kts 181°
2026-05-05 23:20 34.32838 -7.74685 36070 ft 463 kts 181°
2026-05-05 23:21 34.26411 -7.74249 36070 ft 462 kts 182°
2026-05-05 23:21 34.19985 -7.73833 36067 ft 462 kts 182°
2026-05-05 23:22 34.13550 -7.73345 36070 ft 463 kts 180°
2026-05-05 23:22 34.07171 -7.72717 36067 ft 463 kts 180°
2026-05-05 23:23 34.00749 -7.72097 36067 ft 463 kts 180°
2026-05-05 23:23 33.94327 -7.71502 36054 ft 463 kts 181°
2026-05-05 23:24 33.87913 -7.70917 36061 ft 462 kts 181°
2026-05-05 23:24 33.81495 -7.70330 36059 ft 462 kts 181°
2026-05-05 23:25 33.75092 -7.69741 36065 ft 462 kts 181°
2026-05-05 23:25 33.68684 -7.69145 36043 ft 462 kts 182°
2026-05-05 23:26 33.62286 -7.68557 36048 ft 460 kts 182°
2026-05-05 23:26 33.55913 -7.67978 36047 ft 460 kts 182°
2026-05-05 23:27 33.49560 -7.66494 36048 ft 471 kts 169°
2026-05-05 23:27 33.43355 -7.64023 36035 ft 474 kts 168°
2026-05-05 23:28 33.40215 -7.62890 35450 ft 468 kts 176°
2026-05-05 23:28 33.37001 -7.63122 32171 ft 471 kts 203°
2026-05-05 23:28 33.34285 -7.65221 30033 ft 467 kts 230°
2026-05-05 23:28 33.32939 -7.68691 29278 ft 462 kts 259°
2026-05-05 23:29 33.33360 -7.72468 29155 ft 464 kts 289°
2026-05-05 23:29 33.35442 -7.75425 28956 ft 478 kts 322°
2026-05-05 23:29 33.37790 -7.76637 29077 ft 421 kts 347°
2026-05-05 23:29 33.40404 -7.77440 30528 ft 356 kts 312°
2026-05-05 23:30 33.42708 -7.78305 29829 ft 340 kts 303°
2026-05-05 23:30 33.44306 -7.78524 25331 ft 169 kts 258°
2026-05-05 23:30 33.45016 -7.78424 18415 ft 62 kts 126°
2026-05-05 23:30 33.45301 -7.78279 11380 ft 43 kts 43°
2026-05-05 23:31 33.45330 -7.78088 4779 ft 34 kts 266°
2026-05-05 23:31 33.45889 -7.77855 2636 ft 412 kts 21°
2026-05-05 23:31 33.46123 -7.77746 2679 ft 404 kts 22°
2026-05-05 23:38 33.47190 -7.77115 5625 ft 427 kts 24°
2026-05-05 23:39 33.48201 -7.76523 6298 ft 381 kts 24°
2026-05-05 23:39 33.50368 -7.75285 8785 ft 351 kts 12°
2026-05-05 23:39 33.52768 -7.74343 8730 ft 376 kts
2026-05-05 23:39 33.54107 -7.73946 8734 ft 389 kts
2026-05-05 23:40 33.55434 -7.73592 9357 ft 384 kts
2026-05-05 23:42 33.56670 -7.73307 9349 ft 394 kts
2026-05-05 23:42 33.59173 -7.72851 10751 ft 335 kts 352°
2026-05-05 23:42 33.61318 -7.72857 11740 ft 290 kts 330°
2026-05-05 23:42 33.63155 -7.73506 12423 ft 262 kts 307°
2026-05-05 23:43 33.64496 -7.74750 13109 ft 229 kts 281°
2026-05-05 23:43 33.64865 -7.76269 12023 ft 154 kts 218°
2026-05-05 23:43 33.64856 -7.76958 6954 ft 59 kts 119°
2026-05-05 23:43 33.64805 -7.77195 872 ft 6 kts 303°
2026-05-05 23:44 33.64476 -7.77470 1228 ft 7 kts 205°
2026-05-05 23:44 33.64095 -7.77422 1237 ft 7 kts 161°
2026-05-05 23:44 33.64046 -7.77403 154 ft 42 kts 122°